Nichiryu Maru — JG5632 — position and weather

sailwx.info

Track history (hours):
 
Tides and Currents Weather Stations Pressure Air Temp Water Temp Dewpoint Dewpoint Depression Visibility Wind Speed Wind Dir Waves Ship Positions

Nichiryu Maru

Last reported at 2014-Aug-29 17:19 UTC. Time now 2014-Aug-31 06:33 UTC.
Position N 33°44' E 132°16'.

Length 158 m; draft 6.5 m.

Type: Cargo ship. MMSI: 43100939.

Date/timePositionNaut miles runAvg speedWind from/ knotsBaromVisibWave heightAir tempDewpointWater temp
2014-Aug-29 17:19N 33°44' E 132°16'1819.9
2014-Aug-29 16:26N 33°52' E 132°35'12415.7
2014-Aug-29 08:30N 34°36' E 134°55'1515.5
2014-Aug-29 07:33N 34°36' E 135°13'4 4.2
2014-Aug-29 06:30N 34°41' E 135°13'0 0.0
2014-Aug-29 05:30N 34°41' E 135°13'0 0.2
2014-Aug-29 04:33N 34°41' E 135°14'9 9.2
2014-Aug-29 03:33N 34°32' E 135°12'1615.6
2014-Aug-29 02:33N 34°19' E 135°01'1818.0
2014-Aug-29 01:33N 34°01' E 135°00'21716.5
2014-Aug-28 12:24N 34°51' E 139°17'1720.1
2014-Aug-28 11:33N 35°02' E 139°33'1616.4
2014-Aug-28 10:34N 35°14' E 139°46'8 7.7
2014-Aug-28 09:32N 35°19' E 139°39'0 0.0
2014-Aug-28 08:29N 35°19' E 139°39'0 0.0
2014-Aug-28 07:29N 35°19' E 139°39'0 0.0
2014-Aug-28 06:29N 35°19' E 139°39'0 0.0
2014-Aug-28 05:29N 35°19' E 139°39'0 0.0
2014-Aug-28 04:29N 35°19' E 139°39'3 2.9
2014-Aug-28 03:33N 35°19' E 139°42'1211.7
2014-Aug-28 02:33N 35°08' E 139°46'1817.7
2014-Aug-28 01:33N 34°53' E 139°34'  
2014-Aug-25 15:33N 34°28' E 138°32'5116.9
2014-Aug-25 12:31N 34°56' E 139°24'1818.1
2014-Aug-25 11:33N 35°06' E 139°42'1212.4
2014-Aug-25 10:33N 35°18' E 139°43'3 3.4
2014-Aug-25 09:33N 35°19' E 139°39'0 0.0
2014-Aug-25 08:33N 35°19' E 139°39'0 0.0
2014-Aug-25 07:33N 35°19' E 139°39'0 0.0
2014-Aug-25 06:33N 35°19' E 139°39'0 0.0
2014-Aug-25 05:33N 35°19' E 139°39'0 0.0
2014-Aug-25 04:33N 35°19' E 139°39'0 0.0
2014-Aug-25 03:33N 35°19' E 139°39'0 0.0
2014-Aug-25 02:33N 35°19' E 139°39'0 0.0
2014-Aug-25 01:33N 35°19' E 139°39'0 0.0
2014-Aug-25 00:33N 35°19' E 139°39'0 0.0
2014-Aug-24 23:33N 35°19' E 139°39'2 1.6
2014-Aug-24 22:31N 35°19' E 139°41'0 0.0
2014-Aug-24 21:31N 35°19' E 139°41'0 0.0
2014-Aug-24 20:31N 35°19' E 139°41'0 0.1
2014-Aug-24 19:31N 35°19' E 139°41'0 0.0
2014-Aug-24 18:31N 35°19' E 139°41'0 0.0
2014-Aug-24 17:31N 35°19' E 139°41'0 0.0
2014-Aug-24 16:31N 35°19' E 139°41'0 0.0
2014-Aug-24 15:31N 35°19' E 139°41'0 0.0
2014-Aug-24 14:31N 35°19' E 139°41'0 0.0
2014-Aug-24 13:31N 35°19' E 139°41'0 0.1
2014-Aug-24 12:31N 35°19' E 139°41'1 1.6
2014-Aug-24 11:33N 35°18' E 139°43'1212.2
2014-Aug-24 10:34N 35°06' E 139°43'2120.6
2014-Aug-24 09:33N 34°52' E 139°25'4519.2
2014-Aug-24 07:13N 34°32' E 138°36'295 7.4
2014-Aug-22 15:33N 33°57' E 132°41'12315.4
2014-Aug-22 07:33N 34°37' E 135°02'1110.8
2014-Aug-22 06:33N 34°41' E 135°14'1 0.8
2014-Aug-22 05:32N 34°41' E 135°13'0 0.0
2014-Aug-22 04:32N 34°41' E 135°13'1 0.6
2014-Aug-22 03:34N 34°40' E 135°14'1514.6
2014-Aug-22 02:33N 34°27' E 135°08'1818.5
2014-Aug-22 01:34N 34°10' E 134°59'22616.2
2014-Aug-21 11:33N 34°57' E 139°28'1918.8
2014-Aug-21 10:33N 35°10' E 139°45'1010.1
2014-Aug-21 09:33N 35°19' E 139°40'0 0.4
2014-Aug-21 08:28N 35°19' E 139°39'0 0.0
2014-Aug-21 07:28N 35°19' E 139°39'0 0.0
2014-Aug-21 06:31N 35°19' E 139°39'0 0.0
2014-Aug-21 05:31N 35°19' E 139°39'0 0.0
2014-Aug-21 04:31N 35°19' E 139°39'2 1.7
2014-Aug-21 03:33N 35°19' E 139°41'1211.9
2014-Aug-21 02:33N 35°08' E 139°46'1918.6
2014-Aug-21 01:33N 34°53' E 139°32'  
Track history (hours):
 
Tides and Currents Weather Stations Pressure Air Temp Water Temp Dewpoint Dewpoint Depression Visibility Wind Speed Wind Dir Waves Ship Positions

Nichiryu Maru

Last reported at 2014-Aug-29 17:19 UTC. Time now 2014-Aug-31 06:33 UTC.
Position N 33°44' E 132°16'.

Length 158 m; draft 6.5 m.

Type: Cargo ship. MMSI: 43100939.

Date/timePositionNaut miles runAvg speedWind from/ knotsBaromVisibWave heightAir tempDewpointWater temp
2014-Aug-29 17:19N 33°44' E 132°16'1819.9
2014-Aug-29 16:26N 33°52' E 132°35'12415.7
2014-Aug-29 08:30N 34°36' E 134°55'1515.5
2014-Aug-29 07:33N 34°36' E 135°13'4 4.2
2014-Aug-29 06:30N 34°41' E 135°13'0 0.0
2014-Aug-29 05:30N 34°41' E 135°13'0 0.2
2014-Aug-29 04:33N 34°41' E 135°14'9 9.2
2014-Aug-29 03:33N 34°32' E 135°12'1615.6
2014-Aug-29 02:33N 34°19' E 135°01'1818.0
2014-Aug-29 01:33N 34°01' E 135°00'21716.5
2014-Aug-28 12:24N 34°51' E 139°17'1720.1
2014-Aug-28 11:33N 35°02' E 139°33'1616.4
2014-Aug-28 10:34N 35°14' E 139°46'8 7.7
2014-Aug-28 09:32N 35°19' E 139°39'0 0.0
2014-Aug-28 08:29N 35°19' E 139°39'0 0.0
2014-Aug-28 07:29N 35°19' E 139°39'0 0.0
2014-Aug-28 06:29N 35°19' E 139°39'0 0.0
2014-Aug-28 05:29N 35°19' E 139°39'0 0.0
2014-Aug-28 04:29N 35°19' E 139°39'3 2.9
2014-Aug-28 03:33N 35°19' E 139°42'1211.7
2014-Aug-28 02:33N 35°08' E 139°46'1817.7
2014-Aug-28 01:33N 34°53' E 139°34'  
2014-Aug-25 15:33N 34°28' E 138°32'5116.9
2014-Aug-25 12:31N 34°56' E 139°24'1818.1
2014-Aug-25 11:33N 35°06' E 139°42'1212.4
2014-Aug-25 10:33N 35°18' E 139°43'3 3.4
2014-Aug-25 09:33N 35°19' E 139°39'0 0.0
2014-Aug-25 08:33N 35°19' E 139°39'0 0.0
2014-Aug-25 07:33N 35°19' E 139°39'0 0.0
2014-Aug-25 06:33N 35°19' E 139°39'0 0.0
2014-Aug-25 05:33N 35°19' E 139°39'0 0.0
2014-Aug-25 04:33N 35°19' E 139°39'0 0.0
2014-Aug-25 03:33N 35°19' E 139°39'0 0.0
2014-Aug-25 02:33N 35°19' E 139°39'0 0.0
2014-Aug-25 01:33N 35°19' E 139°39'0 0.0
2014-Aug-25 00:33N 35°19' E 139°39'0 0.0
2014-Aug-24 23:33N 35°19' E 139°39'2 1.6
2014-Aug-24 22:31N 35°19' E 139°41'0 0.0
2014-Aug-24 21:31N 35°19' E 139°41'0 0.0
2014-Aug-24 20:31N 35°19' E 139°41'0 0.1
2014-Aug-24 19:31N 35°19' E 139°41'0 0.0
2014-Aug-24 18:31N 35°19' E 139°41'0 0.0
2014-Aug-24 17:31N 35°19' E 139°41'0 0.0
2014-Aug-24 16:31N 35°19' E 139°41'0 0.0
2014-Aug-24 15:31N 35°19' E 139°41'0 0.0
2014-Aug-24 14:31N 35°19' E 139°41'0 0.0
2014-Aug-24 13:31N 35°19' E 139°41'0 0.1
2014-Aug-24 12:31N 35°19' E 139°41'1 1.6
2014-Aug-24 11:33N 35°18' E 139°43'1212.2
2014-Aug-24 10:34N 35°06' E 139°43'2120.6
2014-Aug-24 09:33N 34°52' E 139°25'4519.2
2014-Aug-24 07:13N 34°32' E 138°36'295 7.4
2014-Aug-22 15:33N 33°57' E 132°41'12315.4
2014-Aug-22 07:33N 34°37' E 135°02'1110.8
2014-Aug-22 06:33N 34°41' E 135°14'1 0.8
2014-Aug-22 05:32N 34°41' E 135°13'0 0.0
2014-Aug-22 04:32N 34°41' E 135°13'1 0.6
2014-Aug-22 03:34N 34°40' E 135°14'1514.6
2014-Aug-22 02:33N 34°27' E 135°08'1818.5
2014-Aug-22 01:34N 34°10' E 134°59'22616.2
2014-Aug-21 11:33N 34°57' E 139°28'1918.8
2014-Aug-21 10:33N 35°10' E 139°45'1010.1
2014-Aug-21 09:33N 35°19' E 139°40'0 0.4
2014-Aug-21 08:28N 35°19' E 139°39'0 0.0
2014-Aug-21 07:28N 35°19' E 139°39'0 0.0
2014-Aug-21 06:31N 35°19' E 139°39'0 0.0
2014-Aug-21 05:31N 35°19' E 139°39'0 0.0
2014-Aug-21 04:31N 35°19' E 139°39'2 1.7
2014-Aug-21 03:33N 35°19' E 139°41'1211.9
2014-Aug-21 02:33N 35°08' E 139°46'1918.6
2014-Aug-21 01:33N 34°53' E 139°32'  

Dump ship's entire track history